CFG8PA EDDL-GCTS

Flight info

Callsign CFG8PA
Flight time N/A
Altitude FL340
Route NETEX RASCA FAMEN BSN ESTOC PON DITAL GODIX DIDAK KURIS TERPO ERIGA FUJTI ATLEN ABUPI PESUL BUSEN BEXAL UN866 KONBA
Aircraft A21N/M-SDE3FGHIRWY/LB1

Departure

Time 2026-05-06 04:26
Airport Düsseldorf Airport (EDDL)

Arrival

Time N/A
Airport Tenerife Sur Airport (GCTS)
Time Latitude Longitude Altitude Speed Heading
2026-05-06 04:14 51.27731 6.75544 129 ft 0 kts 63°
2026-05-06 04:19 51.27729 6.75536 130 ft 2 kts 63°
2026-05-06 04:19 51.27723 6.75517 130 ft 2 kts 63°
2026-05-06 04:19 51.27718 6.75501 130 ft 1 kts 63°
2026-05-06 04:19 51.27713 6.75488 130 ft 2 kts 51°
2026-05-06 04:20 51.27704 6.75476 130 ft 2 kts 21°
2026-05-06 04:20 51.27690 6.75473 130 ft 2 kts 349°
2026-05-06 04:20 51.27682 6.75477 130 ft 0 kts 335°
2026-05-06 04:20 51.27678 6.75481 130 ft 1 kts 330°
2026-05-06 04:21 51.27676 6.75482 130 ft 0 kts 332°
2026-05-06 04:21 51.27675 6.75482 130 ft 0 kts 332°
2026-05-06 04:21 51.27676 6.75482 130 ft 0 kts 332°
2026-05-06 04:23 51.27680 6.75479 129 ft 2 kts 332°
2026-05-06 04:23 51.27694 6.75467 129 ft 3 kts 332°
2026-05-06 04:23 51.27719 6.75446 129 ft 5 kts 333°
2026-05-06 04:23 51.27724 6.75442 129 ft 0 kts 333°
2026-05-06 04:24 51.27741 6.75428 129 ft 7 kts 333°
2026-05-06 04:25 51.27800 6.75380 129 ft 13 kts 334°
2026-05-06 04:25 51.27895 6.75308 129 ft 19 kts 335°
2026-05-06 04:25 51.28015 6.75319 129 ft 24 kts 46°
2026-05-06 04:25 51.28232 6.75755 129 ft 87 kts 52°
2026-05-06 04:26 51.28671 6.76685 130 ft 142 kts 53°
2026-05-06 04:26 51.29280 6.78025 281 ft 171 kts 54°
2026-05-06 04:26 51.29925 6.79467 841 ft 172 kts 52°
2026-05-06 04:26 51.30616 6.80925 1516 ft 173 kts 51°
2026-05-06 04:27 51.31328 6.82394 2171 ft 174 kts 51°
2026-05-06 04:27 51.32106 6.84001 2558 ft 187 kts 51°
2026-05-06 04:27 51.32921 6.85697 2932 ft 201 kts 52°
2026-05-06 04:27 51.33786 6.87551 3264 ft 219 kts 54°
2026-05-06 04:28 51.34756 6.89515 3655 ft 234 kts 42°
2026-05-06 04:28 51.36206 6.90817 4101 ft 249 kts 16°
2026-05-06 04:28 51.37960 6.91324 4765 ft 256 kts 10°
2026-05-06 04:28 51.39737 6.91764 5441 ft 261 kts 10°
2026-05-06 04:29 51.41547 6.92222 6120 ft 265 kts 11°
2026-05-06 04:29 51.43398 6.92704 6785 ft 270 kts 10°
2026-05-06 04:29 51.45310 6.93213 7464 ft 275 kts
2026-05-06 04:29 51.47296 6.93657 8177 ft 278 kts
2026-05-06 04:30 51.49164 6.92897 8775 ft 281 kts 329°
2026-05-06 04:30 51.50570 6.90778 9432 ft 282 kts 302°
2026-05-06 04:30 51.51353 6.87915 10036 ft 286 kts 291°
2026-05-06 04:30 51.52050 6.84825 10390 ft 299 kts 291°
2026-05-06 04:31 51.52788 6.81617 10673 ft 313 kts 292°
2026-05-06 04:31 51.53572 6.78286 10957 ft 327 kts 291°
2026-05-06 04:31 51.54393 6.74819 11244 ft 340 kts 291°
2026-05-06 04:31 51.55239 6.71206 11518 ft 354 kts 289°
2026-05-06 04:32 51.55618 6.67245 11765 ft 367 kts 268°
2026-05-06 04:32 51.55045 6.63185 12006 ft 379 kts 246°
2026-05-06 04:32 51.53817 6.59327 12257 ft 391 kts 242°
2026-05-06 04:32 51.52491 6.55378 12478 ft 402 kts 242°
2026-05-06 04:33 51.51151 6.51343 12796 ft 410 kts 241°
2026-05-06 04:33 51.49818 6.47259 13265 ft 414 kts 241°
2026-05-06 04:33 51.48484 6.43144 13782 ft 415 kts 242°
2026-05-06 04:33 51.47116 6.39061 14274 ft 415 kts 237°
2026-05-06 04:34 51.45256 6.35570 14777 ft 412 kts 221°
2026-05-06 04:34 51.42883 6.33056 15217 ft 413 kts 205°
2026-05-06 04:34 51.40198 6.31393 15649 ft 414 kts 199°
2026-05-06 04:34 51.37491 6.29871 16093 ft 415 kts 199°
2026-05-06 04:35 51.34786 6.28191 16461 ft 418 kts 203°
2026-05-06 04:35 51.32180 6.26064 16843 ft 421 kts 210°
2026-05-06 04:35 51.29729 6.23517 17205 ft 423 kts 215°
2026-05-06 04:35 51.27371 6.20702 17569 ft 426 kts 217°
2026-05-06 04:36 51.25012 6.17835 17912 ft 428 kts 216°
2026-05-06 04:36 51.22627 6.14932 18247 ft 431 kts 217°
2026-05-06 04:36 51.20261 6.12067 18581 ft 433 kts 216°
2026-05-06 04:36 51.17863 6.09169 18889 ft 435 kts 217°
2026-05-06 04:37 51.15450 6.06258 19140 ft 439 kts 217°
2026-05-06 04:37 51.13012 6.03322 19431 ft 441 kts 217°
2026-05-06 04:37 51.10567 6.00387 19728 ft 443 kts 217°
2026-05-06 04:37 51.08095 5.97426 20034 ft 445 kts 217°
2026-05-06 04:38 51.05620 5.94459 20309 ft 447 kts 216°
2026-05-06 04:38 51.03135 5.91482 20580 ft 449 kts 217°
2026-05-06 04:38 51.00627 5.88490 20850 ft 451 kts 217°
2026-05-06 04:38 50.98101 5.85479 21118 ft 453 kts 217°
2026-05-06 04:39 50.95573 5.82473 21368 ft 455 kts 217°
2026-05-06 04:39 50.93043 5.79462 21616 ft 457 kts 216°
2026-05-06 04:39 50.90504 5.76449 21857 ft 458 kts 216°
2026-05-06 04:39 50.87958 5.73431 22094 ft 460 kts 217°
2026-05-06 04:40 50.85389 5.70388 22324 ft 462 kts 216°
2026-05-06 04:40 50.82770 5.67291 22557 ft 464 kts 216°
2026-05-06 04:40 50.80159 5.64209 22754 ft 466 kts 217°
2026-05-06 04:40 50.77548 5.61130 22968 ft 467 kts 216°
2026-05-06 04:41 50.74931 5.58049 23236 ft 467 kts 216°
2026-05-06 04:41 50.72325 5.54987 23550 ft 467 kts 217°
2026-05-06 04:41 50.69705 5.51913 23875 ft 466 kts 216°
2026-05-06 04:41 50.67091 5.48843 24219 ft 465 kts 217°
2026-05-06 04:42 50.64487 5.45793 24504 ft 465 kts 216°
2026-05-06 04:42 50.61893 5.42763 24815 ft 465 kts 216°
2026-05-06 04:42 50.59312 5.39751 25143 ft 464 kts 216°
2026-05-06 04:42 50.56721 5.36731 25460 ft 464 kts 216°
2026-05-06 04:43 50.54142 5.33730 25768 ft 463 kts 215°
2026-05-06 04:43 50.51566 5.30735 26062 ft 463 kts 215°
2026-05-06 04:43 50.48988 5.27742 26363 ft 463 kts 215°
2026-05-06 04:43 50.46407 5.24751 26667 ft 462 kts 215°
2026-05-06 04:44 50.43837 5.21775 26960 ft 462 kts 215°
2026-05-06 04:44 50.41263 5.18799 27234 ft 462 kts 215°
2026-05-06 04:44 50.38684 5.15822 27512 ft 462 kts 214°
2026-05-06 04:44 50.36099 5.12841 27777 ft 462 kts 215°
2026-05-06 04:45 50.33509 5.09859 28046 ft 462 kts 214°
2026-05-06 04:45 50.30924 5.06883 28333 ft 462 kts 214°
2026-05-06 04:45 50.28344 5.03918 28620 ft 462 kts 214°
2026-05-06 04:45 50.25756 5.00949 28924 ft 462 kts 214°
2026-05-06 04:46 50.23176 4.97994 29194 ft 462 kts 214°
2026-05-06 04:46 50.20593 4.95044 29450 ft 462 kts 214°
2026-05-06 04:46 50.18037 4.92026 29720 ft 463 kts 217°
2026-05-06 04:46 50.15580 4.88805 30015 ft 463 kts 220°
2026-05-06 04:47 50.13240 4.85367 30271 ft 464 kts 224°
2026-05-06 04:47 50.11030 4.81716 30516 ft 466 kts 227°
2026-05-06 04:47 50.08934 4.77885 30791 ft 466 kts 229°
2026-05-06 04:47 50.06866 4.74026 31078 ft 465 kts 229°
2026-05-06 04:48 50.04805 4.70186 31339 ft 465 kts 229°
2026-05-06 04:48 50.02741 4.66358 31632 ft 463 kts 229°
2026-05-06 04:48 50.00678 4.62560 31923 ft 461 kts 229°
2026-05-06 04:48 49.98622 4.58785 32210 ft 459 kts 229°
2026-05-06 04:49 49.96612 4.54980 32476 ft 458 kts 230°
2026-05-06 04:49 49.94641 4.51103 32696 ft 458 kts 230°
2026-05-06 04:49 49.92685 4.47258 32883 ft 457 kts 231°
2026-05-06 04:49 49.90724 4.43401 33071 ft 457 kts 231°
2026-05-06 04:50 49.88768 4.39560 33266 ft 456 kts 231°
2026-05-06 04:50 49.86816 4.35733 33458 ft 455 kts 231°
2026-05-06 04:50 49.84866 4.31914 33641 ft 454 kts 230°
2026-05-06 04:50 49.82915 4.28100 33760 ft 454 kts 230°
2026-05-06 04:51 49.80960 4.24282 33768 ft 454 kts 230°
2026-05-06 04:51 49.77049 4.16660 33776 ft 454 kts 230°
2026-05-06 04:52 49.73138 4.09059 33782 ft 454 kts 230°
2026-05-06 04:52 49.69213 4.01454 33786 ft 455 kts 230°
2026-05-06 04:53 49.65291 3.93878 33792 ft 455 kts 230°
2026-05-06 04:53 49.61345 3.86273 33795 ft 455 kts 230°
2026-05-06 04:54 49.57413 3.78720 33800 ft 455 kts 230°
2026-05-06 04:54 49.53466 3.71162 33798 ft 455 kts 230°
2026-05-06 04:55 49.49510 3.63605 33796 ft 456 kts 230°
2026-05-06 04:55 49.45549 3.56058 33790 ft 456 kts 230°
2026-05-06 04:56 49.41570 3.48499 33787 ft 457 kts 230°
2026-05-06 04:56 49.37584 3.40950 33794 ft 457 kts 230°
2026-05-06 04:57 49.33579 3.33384 33794 ft 457 kts 230°
2026-05-06 04:57 49.31578 3.29611 33625 ft 458 kts 230°
2026-05-06 04:57 49.29574 3.25835 33421 ft 458 kts 230°
2026-05-06 04:57 49.27565 3.22060 33211 ft 460 kts 230°
2026-05-06 04:58 49.25550 3.18282 32996 ft 462 kts 230°
2026-05-06 04:58 49.23590 3.14411 32830 ft 463 kts 234°
2026-05-06 04:58 49.21844 3.10286 32805 ft 466 kts 239°
2026-05-06 04:59 49.19115 3.01344 32805 ft 468 kts 250°
2026-05-06 04:59 49.17519 2.91767 32801 ft 468 kts 261°
2026-05-06 05:00 49.16670 2.81943 32821 ft 469 kts 263°
2026-05-06 05:00 49.15855 2.72115 32835 ft 468 kts 263°
2026-05-06 05:01 49.14996 2.62252 32823 ft 469 kts 263°
2026-05-06 05:01 49.14123 2.52456 32831 ft 469 kts 263°
2026-05-06 05:02 49.13235 2.42638 32830 ft 470 kts 262°
2026-05-06 05:02 49.12332 2.32788 32830 ft 471 kts 262°
2026-05-06 05:03 49.11416 2.22927 32857 ft 470 kts 262°
2026-05-06 05:03 49.10468 2.13108 32841 ft 470 kts 260°
2026-05-06 05:04 49.08979 2.03450 32845 ft 470 kts 253°
2026-05-06 05:04 49.06744 1.94112 32834 ft 471 kts 246°
2026-05-06 05:05 49.04024 1.85078 32848 ft 471 kts 245°
2026-05-06 05:05 49.01277 1.76058 32849 ft 471 kts 245°
2026-05-06 05:06 48.98550 1.67087 32850 ft 472 kts 245°
2026-05-06 05:06 48.95933 1.58486 32858 ft 472 kts 245°
2026-05-06 05:07 48.93226 1.49613 32847 ft 472 kts 245°
2026-05-06 05:07 48.90514 1.40754 32844 ft 472 kts 245°
2026-05-06 05:08 48.87855 1.32099 32852 ft 472 kts 244°
2026-05-06 05:08 48.85135 1.23277 32859 ft 472 kts 245°
2026-05-06 05:09 48.82374 1.14352 32839 ft 472 kts 245°
2026-05-06 05:09 48.79619 1.05474 32846 ft 472 kts 245°
2026-05-06 05:10 48.76851 0.96590 32870 ft 472 kts 245°
2026-05-06 05:10 48.73973 0.87833 32836 ft 472 kts 241°
2026-05-06 05:11 48.70616 0.79395 32851 ft 471 kts 239°
2026-05-06 05:11 48.67207 0.71026 32844 ft 472 kts 239°
2026-05-06 05:12 48.63778 0.62611 32850 ft 472 kts 239°
2026-05-06 05:12 48.60347 0.54202 32866 ft 473 kts 239°
2026-05-06 05:13 48.56912 0.45803 32853 ft 472 kts 239°
2026-05-06 05:13 48.53479 0.37434 32855 ft 473 kts 239°
2026-05-06 05:14 48.50134 0.29303 32853 ft 472 kts 238°
2026-05-06 05:14 48.46697 0.20973 32863 ft 473 kts 238°
2026-05-06 05:15 48.43249 0.12639 32864 ft 474 kts 238°
2026-05-06 05:15 48.39773 0.04264 32866 ft 475 kts 238°
2026-05-06 05:16 48.36255 -0.04068 32865 ft 474 kts 236°
2026-05-06 05:16 48.32377 -0.12053 32876 ft 475 kts 234°
2026-05-06 05:17 48.28449 -0.19957 32874 ft 475 kts 234°
2026-05-06 05:17 48.24496 -0.27874 32867 ft 476 kts 233°
2026-05-06 05:18 48.20489 -0.35709 32872 ft 476 kts 233°
2026-05-06 05:18 48.16462 -0.43556 32871 ft 477 kts 233°
2026-05-06 05:19 48.12439 -0.51393 32878 ft 478 kts 233°
2026-05-06 05:19 48.08407 -0.59230 32885 ft 478 kts 233°
2026-05-06 05:20 48.04367 -0.67061 32889 ft 479 kts 233°
2026-05-06 05:20 48.00313 -0.74900 32884 ft 479 kts 233°
2026-05-06 05:21 47.96252 -0.82726 32884 ft 479 kts 233°
2026-05-06 05:21 47.92180 -0.90553 32888 ft 479 kts 233°
2026-05-06 05:22 47.88124 -0.98324 32876 ft 478 kts 233°
2026-05-06 05:22 47.84069 -1.06075 32875 ft 478 kts 233°
2026-05-06 05:23 47.80100 -1.13640 32876 ft 478 kts 233°
2026-05-06 05:23 47.74061 -1.25112 32877 ft 479 kts 233°
2026-05-06 05:24 47.69973 -1.32853 32880 ft 478 kts 233°
2026-05-06 05:24 47.65885 -1.40571 32882 ft 478 kts 234°
2026-05-06 05:25 47.61796 -1.48269 32882 ft 477 kts 234°
2026-05-06 05:25 47.57523 -1.55759 32881 ft 478 kts 230°
2026-05-06 05:26 47.53099 -1.63033 32887 ft 478 kts 230°
2026-05-06 05:26 47.48667 -1.70309 32887 ft 478 kts 229°
2026-05-06 05:27 47.44231 -1.77584 32891 ft 479 kts 229°
2026-05-06 05:27 47.39780 -1.84846 32889 ft 480 kts 228°
2026-05-06 05:28 47.34974 -1.91633 32889 ft 481 kts 221°
2026-05-06 05:28 47.29628 -1.97536 32895 ft 482 kts 214°
2026-05-06 05:29 47.23891 -2.02700 32890 ft 483 kts 212°
2026-05-06 05:29 47.18042 -2.07881 32895 ft 484 kts 212°
2026-05-06 05:30 47.12281 -2.13002 32902 ft 484 kts 212°
2026-05-06 05:30 47.06502 -2.18139 32905 ft 484 kts 212°
2026-05-06 05:31 47.00712 -2.23274 32902 ft 484 kts 212°
2026-05-06 05:31 46.94959 -2.28365 32899 ft 485 kts 212°
2026-05-06 05:32 46.89138 -2.33503 32897 ft 485 kts 212°
2026-05-06 05:32 46.83655 -2.38323 32902 ft 485 kts 212°
2026-05-06 05:33 46.78184 -2.43116 32902 ft 484 kts 212°
2026-05-06 05:33 46.72516 -2.48074 32897 ft 484 kts 212°
2026-05-06 05:34 46.66755 -2.53106 32904 ft 484 kts 212°
2026-05-06 05:34 46.60883 -2.58222 32903 ft 484 kts 212°
2026-05-06 05:35 46.55007 -2.63331 32901 ft 484 kts 212°
2026-05-06 05:35 46.49124 -2.68434 32900 ft 484 kts 212°
2026-05-06 05:36 46.43221 -2.73540 32901 ft 484 kts 212°
2026-05-06 05:36 46.37321 -2.78634 32905 ft 484 kts 212°
2026-05-06 05:37 46.31438 -2.83696 32900 ft 485 kts 212°
2026-05-06 05:37 46.25697 -2.89115 32904 ft 483 kts 218°
2026-05-06 05:38 46.20437 -2.95308 32908 ft 482 kts 222°
2026-05-06 05:38 46.15270 -3.01641 32907 ft 482 kts 222°
2026-05-06 05:39 46.10181 -3.07850 32909 ft 482 kts 222°
2026-05-06 05:39 46.05006 -3.14138 32909 ft 482 kts 222°
2026-05-06 05:40 45.99802 -3.20441 32903 ft 482 kts 222°
2026-05-06 05:40 45.94566 -3.26765 32901 ft 482 kts 222°
2026-05-06 05:41 45.89386 -3.33006 32902 ft 480 kts 222°
2026-05-06 05:41 45.84284 -3.39136 32907 ft 480 kts 222°
2026-05-06 05:42 45.79393 -3.45000 32914 ft 480 kts 222°
2026-05-06 05:42 45.74478 -3.50879 32914 ft 480 kts 222°
2026-05-06 05:43 45.69719 -3.56558 32926 ft 479 kts 222°
2026-05-06 05:43 45.64953 -3.62232 32923 ft 479 kts 222°
2026-05-06 05:44 45.59871 -3.68267 32932 ft 478 kts 221°
2026-05-06 05:44 45.54813 -3.74260 32933 ft 478 kts 221°
2026-05-06 05:45 45.49645 -3.80367 32939 ft 478 kts 221°
2026-05-06 05:45 45.44540 -3.86385 32939 ft 478 kts 221°
2026-05-06 05:46 45.39460 -3.92362 32941 ft 477 kts 221°
2026-05-06 05:46 45.34407 -3.98292 32940 ft 477 kts 221°
2026-05-06 05:47 45.29221 -4.04362 32944 ft 476 kts 221°
2026-05-06 05:47 45.24045 -4.10402 32950 ft 477 kts 221°
2026-05-06 05:48 45.18943 -4.16345 32948 ft 477 kts 221°
2026-05-06 05:48 45.13832 -4.22285 32950 ft 477 kts 221°
2026-05-06 05:49 45.08615 -4.28333 32948 ft 476 kts 221°
2026-05-06 05:49 45.03395 -4.34371 32949 ft 476 kts 221°
2026-05-06 05:50 44.98162 -4.40406 32948 ft 476 kts 221°
2026-05-06 05:50 44.92907 -4.46453 32955 ft 476 kts 221°
2026-05-06 05:51 44.87683 -4.52450 32953 ft 476 kts 221°
2026-05-06 05:51 44.82404 -4.58499 32955 ft 476 kts 221°
2026-05-06 05:52 44.77145 -4.64509 32965 ft 476 kts 221°
2026-05-06 05:52 44.71915 -4.70470 32965 ft 476 kts 220°
2026-05-06 05:53 44.66683 -4.76421 32953 ft 475 kts 220°
2026-05-06 05:53 44.61474 -4.82334 32964 ft 476 kts 221°
2026-05-06 05:54 44.56281 -4.88217 32973 ft 475 kts 220°
2026-05-06 05:54 44.51012 -4.94051 33295 ft 475 kts 218°
2026-05-06 05:55 44.48263 -4.96702 33568 ft 472 kts 214°
2026-05-06 05:55 44.45555 -4.99082 33799 ft 470 kts 213°
2026-05-06 05:55 44.42893 -5.01400 33967 ft 470 kts 213°
2026-05-06 05:55 44.40161 -5.03776 34117 ft 470 kts 213°
2026-05-06 05:56 44.37376 -5.06196 34260 ft 470 kts 214°
2026-05-06 05:56 44.34619 -5.08594 34415 ft 469 kts 214°
2026-05-06 05:56 44.31867 -5.10988 34593 ft 469 kts 214°
2026-05-06 05:56 44.29110 -5.13387 34773 ft 468 kts 214°
2026-05-06 05:57 44.26345 -5.15789 34929 ft 467 kts 214°
2026-05-06 05:57 44.23580 -5.18189 34970 ft 467 kts 214°
2026-05-06 05:57 44.18096 -5.22943 34986 ft 465 kts 214°
2026-05-06 05:58 44.12605 -5.27690 34981 ft 465 kts 214°
2026-05-06 05:58 44.07130 -5.32411 34982 ft 465 kts 214°
2026-05-06 05:59 44.01651 -5.37126 34975 ft 465 kts 214°
2026-05-06 05:59 43.96171 -5.41833 34997 ft 465 kts 214°
2026-05-06 06:00 43.90690 -5.46529 34988 ft 464 kts 214°
2026-05-06 06:00 43.85221 -5.51206 34996 ft 464 kts 214°
2026-05-06 06:01 43.79750 -5.55872 35005 ft 464 kts 214°
2026-05-06 06:01 43.74270 -5.60537 35005 ft 464 kts 214°
2026-05-06 06:02 43.68799 -5.65184 35012 ft 464 kts 214°
2026-05-06 06:02 43.63311 -5.69834 35018 ft 463 kts 214°
2026-05-06 06:03 43.57852 -5.74451 35033 ft 462 kts 214°
2026-05-06 06:03 43.52399 -5.79055 35036 ft 461 kts 214°
2026-05-06 06:04 43.46943 -5.83651 35036 ft 462 kts 214°
2026-05-06 06:04 43.41484 -5.88239 35030 ft 461 kts 214°
2026-05-06 06:05 43.36039 -5.92801 35048 ft 460 kts 215°
2026-05-06 06:05 43.30603 -5.97353 35047 ft 459 kts 215°
2026-05-06 06:06 43.25150 -6.01907 34980 ft 459 kts 215°
2026-05-06 06:06 43.19735 -6.06420 35050 ft 458 kts 215°
2026-05-06 06:07 43.14312 -6.10929 35052 ft 457 kts 215°
2026-05-06 06:07 43.08880 -6.15440 35048 ft 457 kts 215°
2026-05-06 06:08 43.03486 -6.19904 35031 ft 456 kts 215°
2026-05-06 06:08 42.98082 -6.24369 35007 ft 455 kts 215°
2026-05-06 06:09 42.92684 -6.28821 35014 ft 455 kts 215°
2026-05-06 06:09 42.87290 -6.33259 35017 ft 455 kts 215°
2026-05-06 06:10 42.81897 -6.37690 35000 ft 454 kts 215°
2026-05-06 06:10 42.76503 -6.42110 35005 ft 454 kts 215°
2026-05-06 06:11 42.71122 -6.46511 34999 ft 453 kts 215°
2026-05-06 06:11 42.65738 -6.50907 35007 ft 453 kts 215°
2026-05-06 06:12 42.60353 -6.55294 35005 ft 453 kts 215°
2026-05-06 06:12 42.54964 -6.59674 35012 ft 453 kts 214°
2026-05-06 06:13 42.49582 -6.64040 35019 ft 453 kts 215°
2026-05-06 06:13 42.44202 -6.68396 35023 ft 452 kts 214°
2026-05-06 06:14 42.38818 -6.72744 35007 ft 452 kts 214°
2026-05-06 06:14 42.33439 -6.77082 34997 ft 452 kts 214°
2026-05-06 06:15 42.28063 -6.81410 34989 ft 451 kts 214°
2026-05-06 06:15 42.22681 -6.85732 34981 ft 451 kts 214°
2026-05-06 06:16 42.17308 -6.90039 34979 ft 451 kts 214°
2026-05-06 06:16 42.11933 -6.94339 34975 ft 451 kts 214°
2026-05-06 06:17 42.06554 -6.98635 34980 ft 451 kts 214°
2026-05-06 06:17 42.01168 -7.02927 34976 ft 451 kts 214°
2026-05-06 06:18 41.95782 -7.07209 34971 ft 450 kts 214°
2026-05-06 06:18 41.90410 -7.11474 34987 ft 449 kts 214°
2026-05-06 06:19 41.85040 -7.15734 34992 ft 449 kts 214°
2026-05-06 06:19 41.79678 -7.19975 34996 ft 449 kts 214°
2026-05-06 06:20 41.74412 -7.24382 35001 ft 447 kts 218°
2026-05-06 06:20 41.69468 -7.29343 35009 ft 446 kts 221°
2026-05-06 06:21 41.64562 -7.34377 35013 ft 446 kts 221°
2026-05-06 06:21 41.59654 -7.39401 35016 ft 445 kts 221°
2026-05-06 06:22 41.54748 -7.44414 35014 ft 445 kts 221°
2026-05-06 06:22 41.49850 -7.49406 35011 ft 444 kts 221°
2026-05-06 06:23 41.44950 -7.54393 35009 ft 444 kts 221°
2026-05-06 06:23 41.40056 -7.59364 35008 ft 444 kts 221°
2026-05-06 06:24 41.35163 -7.64325 35012 ft 444 kts 221°
2026-05-06 06:24 41.30260 -7.69286 35016 ft 444 kts 220°
2026-05-06 06:25 41.25351 -7.74242 35022 ft 444 kts 220°
2026-05-06 06:26 41.17982 -7.81666 35025 ft 444 kts 220°
2026-05-06 06:26 41.13040 -7.86632 35019 ft 444 kts 220°
2026-05-06 06:27 41.08062 -7.91626 35011 ft 444 kts 220°
2026-05-06 06:27 41.03159 -7.96536 35007 ft 444 kts 220°
2026-05-06 06:28 40.98250 -8.01445 35002 ft 443 kts 220°
2026-05-06 06:28 40.93346 -8.06340 35004 ft 443 kts 220°
2026-05-06 06:29 40.88417 -8.11187 35016 ft 444 kts 218°
2026-05-06 06:29 40.83242 -8.15614 35013 ft 446 kts 216°
2026-05-06 06:30 40.78019 -8.19983 35019 ft 446 kts 216°
2026-05-06 06:30 40.72801 -8.24342 35016 ft 445 kts 216°
2026-05-06 06:31 40.67588 -8.28692 35017 ft 445 kts 216°
2026-05-06 06:31 40.62382 -8.33028 35017 ft 444 kts 216°
2026-05-06 06:32 40.57179 -8.37356 35013 ft 444 kts 216°
2026-05-06 06:32 40.51979 -8.41672 35015 ft 443 kts 216°
2026-05-06 06:33 40.46757 -8.46001 35016 ft 443 kts 216°
2026-05-06 06:33 40.41576 -8.50286 35018 ft 443 kts 216°
2026-05-06 06:34 40.36388 -8.54567 35014 ft 442 kts 216°
2026-05-06 06:34 40.31201 -8.58842 35015 ft 442 kts 216°
2026-05-06 06:35 40.26005 -8.63116 35010 ft 442 kts 216°
2026-05-06 06:35 40.20815 -8.67376 35008 ft 442 kts 215°
2026-05-06 06:36 40.15619 -8.71634 35011 ft 442 kts 215°
2026-05-06 06:36 40.10423 -8.75886 35010 ft 442 kts 214°
2026-05-06 06:37 40.05221 -8.80134 35011 ft 443 kts 214°
2026-05-06 06:37 40.00017 -8.84374 35010 ft 442 kts 214°
2026-05-06 06:38 39.94818 -8.88602 35008 ft 441 kts 214°
2026-05-06 06:38 39.89632 -8.92813 35007 ft 441 kts 214°
2026-05-06 06:39 39.84436 -8.97024 35007 ft 441 kts 215°
2026-05-06 06:39 39.79247 -9.01224 35011 ft 441 kts 214°
2026-05-06 06:40 39.74054 -9.05419 35010 ft 441 kts 214°
2026-05-06 06:40 39.68856 -9.09609 35016 ft 441 kts 214°
2026-05-06 06:41 39.63662 -9.13789 35021 ft 441 kts 214°
2026-05-06 06:41 39.58465 -9.17963 35018 ft 440 kts 214°
2026-05-06 06:42 39.53272 -9.22128 35021 ft 440 kts 215°
2026-05-06 06:42 39.48087 -9.26277 35016 ft 440 kts 215°
2026-05-06 06:43 39.42905 -9.30416 35011 ft 439 kts 215°
2026-05-06 06:43 39.37730 -9.34546 35012 ft 439 kts 215°
2026-05-06 06:44 39.32545 -9.38675 35015 ft 439 kts 215°
2026-05-06 06:44 39.27360 -9.42797 35016 ft 439 kts 215°
2026-05-06 06:45 39.22159 -9.46924 35018 ft 439 kts 215°
2026-05-06 06:45 39.16965 -9.51038 35018 ft 439 kts 214°
2026-05-06 06:46 39.11753 -9.55159 35025 ft 439 kts 214°
2026-05-06 06:46 39.06521 -9.59287 35018 ft 438 kts 214°
2026-05-06 06:47 39.01333 -9.63375 35021 ft 437 kts 215°
2026-05-06 06:47 38.96120 -9.67476 35026 ft 437 kts 214°
2026-05-06 06:48 38.90924 -9.71556 35027 ft 437 kts 214°
2026-05-06 06:48 38.85701 -9.75650 35027 ft 438 kts 214°
2026-05-06 06:49 38.80516 -9.79708 35028 ft 438 kts 214°
2026-05-06 06:49 38.75331 -9.83760 35031 ft 438 kts 214°
2026-05-06 06:50 38.70139 -9.87812 35031 ft 438 kts 214°
2026-05-06 06:50 38.64942 -9.91862 35033 ft 438 kts 214°
2026-05-06 06:51 38.59733 -9.95913 35029 ft 438 kts 214°
2026-05-06 06:51 38.54430 -9.99872 35034 ft 439 kts 211°
2026-05-06 06:52 38.48792 -10.03286 35215 ft 439 kts 208°
2026-05-06 06:52 38.46039 -10.04883 35534 ft 433 kts 208°